#timestamp,LO_Frequency,Hit,StdDev 
1636326015.9,286046997.2,N
1636326035.7,286046997.5,N
1636326055.5,286046996.9,N
1636326075.4,286046997.1,N
1636326095.2,286046997.5,N
1636326115.1,286046997.2,N
1636326116.0,286046997.2,N
1636326135.8,286046996.5,N
1636326155.6,286046998.9,N
1636326175.5,286046996.8,N
1636326195.3,286046998.8,N
1636326215.2,286046999.4,N
1636326235.9,286047001.2,N
1636326255.7,286046998.8,N
1636326275.6,286046999.0,N
1636326295.4,286046998.3,N
1636326315.2,286046998.1,N
1636326335.1,286047000.7,N
1636326336.0,286047000.7,N
1636326355.8,286047000.6,N
1636326375.7,286047000.7,N
1636326395.5,286046998.3,N
1636326415.3,286047001.1,N
1636326435.2,286046998.8,N
1636326455.0,286046998.7,N
1636326455.9,286046998.7,N
1636326475.7,286046999.0,N
1636326495.6,286046998.6,N
1636326515.4,286047000.9,N
1636326535.7,286047001.1,N
1636326555.6,286047000.8,N
1636326575.4,286047000.4,N
1636326595.2,286047001.0,N
1636326615.1,286047001.1,N
1636326616.0,286047001.1,N
1636326635.8,286047000.9,N
1636326655.6,286046999.5,N
1636326675.5,286046997.0,N
1636326695.3,286046997.3,N
1636326715.2,286046997.6,N
1636326735.9,286046995.4,Y
1636326755.7,286046997.5,P
1636326775.6,286046995.7,P
1636326795.4,286046993.6,P
1636326815.2,286046996.0,N
1636326835.1,286046997.5,N
1636326836.0,286046997.5,N
1636326855.8,286046995.0,N
1636326875.7,286046995.3,N
1636326895.5,286046995.3,N
1636326915.3,286046998.0,N
1636326935.2,286046997.3,N
1636326955.0,286046997.9,N
1636326955.9,286046997.9,N
1636326975.8,286046997.5,N
1636326995.6,286046995.5,Y
1636327015.4,286046998.5,P
1636327035.3,286046999.2,N
1636327055.1,286046998.7,N
1636327075.8,286046997.1,Y
1636327095.7,286046998.1,P
1636327115.5,286046998.6,P
1636327135.4,286047000.1,N
1636327155.2,286046999.8,N
1636327175.0,286047001.4,N
1636327175.9,286047001.4,N
1636327195.8,286047001.4,N
1636327215.6,286047001.8,N
1636327235.4,286047002.8,N
1636327255.3,286047000.0,N
1636327275.1,286046998.2,N
1636327295.9,286047000.6,N
1636327315.7,286046998.4,N
1636327335.5,286047001.1,N
1636327355.4,286046998.3,N
1636327375.2,286046998.8,N
1636327395.0,286047000.8,N
1636327395.9,286047000.8,N
1636327415.8,286046998.4,N
1636327435.6,286046999.2,N
1636327455.5,286046998.5,N
1636327475.3,286047000.6,N
1636327495.1,286046998.8,N
1636327515.9,286046998.3,N
1636327535.7,286046999.5,N
1636327555.6,286046999.3,N
1636327575.4,286047000.9,N
1636327595.2,286047001.0,N
1636327615.1,286047002.4,N
1636327616.0,286047002.4,N
1636327635.8,286047000.8,N
1636327655.7,286047000.1,N
1636327675.5,286047000.9,N
1636327695.3,286046998.4,N
1636327715.2,286046998.8,N
1636327735.0,286046997.0,N
1636327735.9,286046997.0,N
1636327755.7,286046999.6,N
1636327775.6,286046996.9,N
1636327795.4,286047001.2,N
1636327815.3,286047000.2,N
1636327835.1,286046999.7,N
1636327836.0,286046999.7,N
1636327855.8,286047001.0,N
1636327875.7,286047000.5,N
1636327895.5,286047002.8,N
1636327915.3,286047001.9,N
1636327935.2,286047001.6,N
1636327955.0,286047001.9,N
1636327955.9,286047001.9,N
1636327975.8,286047004.2,N
1636327995.6,286047004.4,N
1636328015.4,286047001.4,N
1636328035.3,286047001.8,N
1636328055.1,286047001.6,N
1636328075.9,286047003.3,N
1636328095.7,286047005.5,N
1636328145.6,286047004.4,E
1636328155.5,286047000.3,N
1636328175.3,286046999.6,P
1636328195.2,286046999.0,N
1636328215.9,286046996.7,Y
1636328235.7,286046998.3,P
1636328255.6,286047000.6,N
1636328275.4,286047000.0,N
1636328295.3,286046999.9,N
1636328315.1,286047000.9,N
1636328316.0,286047000.9,N
1636328335.8,286047000.2,N
1636328355.7,286046999.7,N
1636328405.5,286047000.9,E
1636328415.4,286047000.6,N
1636328435.3,286047001.0,P
1636328455.1,286047001.0,P
1636328475.9,286047000.7,Y
1636328495.7,286046998.5,P
1636328515.5,286046999.1,N
1636328535.4,286046999.3,N
1636328555.2,286046999.3,N
1636328575.0,286046999.5,N
1636328575.9,286046999.5,N
1636328595.8,286046999.2,N
1636328615.6,286046998.9,N
1636328635.5,286046998.7,N
1636328655.3,286046998.7,N
1636328675.1,286046999.5,N
1636328695.9,286046999.4,N
1636328715.7,286046999.0,N
1636328735.5,286046999.5,N
1636328755.4,286046999.2,N
1636328775.2,286046997.8,Y
1636328795.1,286046999.4,P
1636328796.0,286046999.4,P
1636328815.8,286046996.9,P
1636328835.6,286046999.3,N
1636328855.5,286046999.2,N
1636328875.3,286046998.8,N
1636328895.2,286047000.8,N
1636328915.9,286046999.7,N
1636328935.7,286046999.8,N
1636328955.6,286047000.3,N
1636328975.4,286047000.7,N
1636328995.2,286046998.6,N
1636329015.1,286047001.2,N
1636329016.0,286047001.2,N
1636329035.8,286047000.9,N
1636329055.7,286047000.6,N
1636329075.5,286047000.8,N
1636329095.3,286047000.9,N
1636329115.2,286047001.1,N
1636329135.0,286047001.0,N
1636329135.9,286047001.0,N
1636329155.8,286047000.8,N
1636329175.6,286046998.3,N
1636329195.4,286046999.6,N
1636329215.3,286046999.1,N
1636329235.1,286046997.3,N
1636329255.8,286046999.4,N
1636329275.7,286046998.4,N
1636329295.5,286046998.8,N
1636329315.4,286046998.2,N
1636329335.2,286046998.1,N
1636329355.0,286046998.3,N
1636329355.9,286046998.3,N
1636329375.8,286047000.4,N
1636329395.6,286047000.6,N
1636329415.4,286047000.9,N
1636329435.3,286047000.4,N
1636329455.1,286047002.6,N
1636329475.9,286047004.4,Y
1636329495.7,286047004.3,P
1636329515.5,286047001.8,N
1636329535.4,286047002.0,N
1636329555.2,286047000.1,N
1636329575.0,286046999.8,N
1636329575.9,286046999.8,N
1636329595.8,286047000.9,N
